KAZSAT-2

Last updated on Thu Sep 10 2026 00:02:57 GMT+0000 (Coordinated Universal Time)

1 37749U 11035B 26252.60273505 -.00000218 00000+0 00000+0 0 9995 2 37749 0.0178 96.4633 0001927 138.7981 56.8542 1.00268557 54244
UTC large
Height (km)
Speed (km/s)
/
Latitude / Longitude
Inclination (degrees)
Orbital Period (minutes)
Azimuth
Elevation
Range (km)
Doppler Factor

Next 0 passes for location: London (51.5072 / 0.1276)

No passes found over London.
KAZSAT-2